Powrót do katalogu

STARLINK-36879

AktywnyŁącznośćSSO
NORAD 67982·PAYLOAD·🇺🇸 United States

Wystrzelony Feb 25, 2026 z Vandenberg Space Force Base

Loading…

Następne Przeloty (najbliższe 24 godziny)

TLE

ŚwieżeSource: CelesTrak SupGP

Epoka: Sep 15, 2026, 03:47 UTC

1 67982C 26038X   26258.15812500 -.00058403  00000+0 -18131-2 0  2581
2 67982  97.2842 266.6376 0001500  94.7332 103.2263 15.33465341    19

Śledź STARLINK-36879 w czasie rzeczywistym z AllMySat

Download on the App Store